Home   Weather   Grand Prairie   Past weeks
Flag for USA

Past Weather in Grand Prairie, Texas, USA — Yesterday and Last 2 Weeks

Now
59 °F

Sunny.


Feels Like: 59 °F
Forecast: 76 / 48 °F
Wind: No wind

Location: Grand Prairie Municipal Airport

Current Time: Mar 22, 2019 at 9:54:33 am

Latest Report: Mar 22, 2019 at 8:50 am


Visibility: 10 mi

Pressure: 30.22 "Hg

Humidity: 48%

Dew Point: 39 °F

Location of Grand PrairieLocation

Past Weather in Grand Prairie — Graph

°F

Grand Prairie Temperature Yesterday

Maximum temperature yesterday: 75 °F (at 2:50 pm)
Minimum temperature yesterday: 46 °F (at 6:15 am)
Average temperature yesterday: 58 °F

High & Low Weather Summary for the Past Weeks

 TemperatureHumidityPressure
High77 °F (Mar 8, 2:50 pm)100% (Mar 7, 7:15 am)30.51 "Hg (Mar 7, 7:15 am)
Low37 °F (Mar 16, 7:35 am)18% (Mar 21, 2:50 pm)29.52 "Hg (Mar 13, 4:50 pm)
Average57 °F58%30.12 "Hg
* Reported Mar 7 7:15 am — Mar 22 8:35 am, Grand Prairie. Weather by CustomWeather, © 2019

Note: Actual official high and low records may vary slightly from our data, if they occured in-between our weather recording intervals... More about our weather records

Advertising

Grand Prairie Weather History for the Previous 24 Hours

Scroll right to see more
 ConditionsComfort  
Time TempWeatherWind HumidityBarometerVisibility
8:35 am
Fri, Mar 22
56 °FSunny.3 mph49%30.21 "Hg10 mi
8:15 am55 °FSunny.3 mph50%30.19 "Hg10 mi
7:55 am54 °FSunny.No wind53%30.18 "Hg10 mi
7:35 am53 °FSunny.No wind55%30.17 "Hg10 mi
6:55 am51 °FClear.No wind59%30.16 "Hg10 mi
6:35 am53 °FClear.No wind56%30.16 "Hg10 mi
6:15 am54 °FClear.No wind54%30.16 "Hg10 mi
5:55 am52 °FClear.No wind56%30.16 "Hg10 mi
5:35 am54 °FClear.3 mph52%30.16 "Hg10 mi
5:15 am54 °FClear.3 mph53%30.16 "Hg10 mi
4:55 am54 °FClear.No wind52%30.16 "Hg10 mi
4:35 am54 °FClear.No wind53%30.16 "Hg10 mi
4:15 am55 °FClear.No wind51%30.16 "Hg10 mi
3:55 am55 °FClear.No wind50%30.16 "Hg10 mi
3:35 am56 °FClear.No wind48%30.16 "Hg10 mi
3:15 am56 °FClear.No wind47%30.16 "Hg10 mi
2:55 am57 °FClear.No wind45%30.16 "Hg10 mi
2:35 am57 °FClear.No wind43%30.16 "Hg10 mi
1:55 am57 °FClear.No wind46%30.16 "Hg10 mi
1:35 am56 °FClear.No wind49%30.16 "Hg10 mi
1:15 am55 °FClear.No wind52%30.16 "Hg10 mi
12:55 am56 °FClear.No wind50%30.17 "Hg10 mi
12:35 am59 °FClear.No wind44%30.17 "Hg10 mi
11:55 pm
Thu, Mar 21
60 °FClear.No wind42%30.18 "Hg10 mi
11:35 pm60 °FClear.No wind41%30.18 "Hg10 mi
11:15 pm58 °FClear.No wind47%30.17 "Hg10 mi
10:55 pm64 °FClear.No wind35%30.16 "Hg10 mi
10:35 pm64 °FClear.3 mph34%30.16 "Hg10 mi
10:15 pm65 °FClear.No wind31%30.15 "Hg10 mi
9:55 pm66 °FClear.No wind28%30.14 "Hg10 mi
9:35 pm66 °FClear.No wind28%30.14 "Hg10 mi
9:15 pm66 °FClear.No wind28%30.13 "Hg10 mi
8:55 pm67 °FClear.No wind27%30.13 "Hg10 mi
8:35 pm66 °FClear.No wind28%30.13 "Hg10 mi
7:55 pm67 °FClear.3 mph31%30.13 "Hg10 mi
7:15 pm73 °FSunny.No wind20%30.13 "Hg10 mi
6:50 pm73 °FSunny.5 mph20%30.12 "Hg10 mi
5:50 pm73 °FSunny.8 mph19%30.13 "Hg10 mi
4:50 pm75 °FSunny.8 mph19%30.14 "Hg10 mi
3:50 pm75 °FSunny.6 mph21%30.15 "Hg10 mi
2:50 pm75 °FSunny.7 mph18%30.18 "Hg10 mi
1:50 pm73 °FSunny.7 mph23%30.20 "Hg10 mi
12:50 pm73 °FSunny.12 mph23%30.22 "Hg10 mi
11:50 am70 °FSunny.9 mph31%30.23 "Hg10 mi
10:50 am59 °FSunny.9 mph45%30.25 "Hg10 mi
9:50 am59 °FSunny.9 mph45%30.25 "Hg10 mi
Weather by CustomWeather, © 2019

See weather overview